Content
SEND FEEDBACK

Daily
Averages
Monthly
Summary
United States of America

BERKELEY - UNIVERSITY OF CALIFORNIA, CALIFORNIA


Home > North America > United States > California
Elevation: 1750 feet     Latitude: 37 52N     Longitude: 122 13W

WEATHER
 
SELECT A DAY
Number of Records: 188,447;   Date Range: 1/1/95 - 12/27/14
 
SHARE

PRINT THIS DATA

[ ← Previous Day ]
WEATHER ALMANAC - JANUARY 22, 2013
[ Next Day → ]
[ °C ]   °F
Weather ElementAverageHighLow
Temperature50.5 °F59 °F (2:53 pm)39.9 °F (5:53 am)
Dewpoint44 °F48 °F (8:53 pm)39 °F (2:53 am)
Humidity79.5 %97 % (5:53 am)57 % (12:53 pm)
Barometer30.08 in30.13 in (10:53 am)30.02 in (5:53 pm)
Wind Speed3.5 mph8.1 mph (9:53 am)
Weather ElementAverage
Visibility8.8 mi
Wind DirectionSSE (143 °)

Weather ElementTotal
Precipitation---
Heating Degree Days15.6 (Base 65)
Averaged from 23 records on January 22, 2013
WEATHER CONDITIONS BREAKOUT
WIND DIRECTION BREAKOUT
WEATHER BY HOUR - JANUARY 22, 2013
[ °C ]   °F
Local TimeTemperatureDewpointHumidityBarometerVisibilityWind DirectionWind SpeedGust SpeedPrecipitationEventsConditions
1:53 AM44.1 °F39.9 °F85 %30.12 in9.0 miCalmClear
2:53 AM44.1 °F39.0 °F82 %30.11 in9.0 miCalmPartly Cloudy
3:53 AM41.0 °F39.9 °F96 %30.09 in8.0 miCalmClear
4:53 AM45.0 °F43.0 °F93 %30.10 in8.0 miSE (140°)4.6 mphClear
5:53 AM39.9 °F39.0 °F97 %30.10 in8.0 miEast (90°)3.5 mphClear
6:53 AM45.0 °F44.1 °F97 %30.11 in9.0 miSSE (150°)5.8 mphMostly Cloudy
7:53 AM46.0 °F41.0 °F83 %30.12 in6.0 miSouth (180°)3.5 mphHaze
8:53 AM48.0 °F46.0 °F93 %30.12 in6.0 miSE (130°)4.6 mphMostly Cloudy
9:53 AM52.0 °F44.1 °F74 %30.12 in6.0 miSouth (170°)8.1 mphHaze
10:53 AM51.1 °F44.1 °F77 %30.13 in6.0 miSW (220°)3.5 mphHaze
11:53 AM55.0 °F43.0 °F64 %30.11 in8.0 miWest (280°)8.1 mphScattered Clouds
12:53 PM55.9 °F41.0 °F57 %30.07 in10.0 miWSW (240°)5.8 mphScattered Clouds
1:53 PM57.0 °F45.0 °F64 %30.05 in10.0 miWSW (250°)6.9 mphScattered Clouds
2:53 PM59.0 °F44.1 °F58 %30.04 in10.0 miWNW (300°)4.6 mphMostly Cloudy
3:53 PM57.0 °F46.0 °F67 %30.03 in10.0 miSouth (180°)4.6 mphMostly Cloudy
4:53 PM55.9 °F45.0 °F67 %30.04 in10.0 miNW (320°)3.5 mphMostly Cloudy
5:53 PM54.0 °F46.9 °F77 %30.02 in10.0 miENE (60°)3.5 mphMostly Cloudy
6:53 PM55.0 °F46.0 °F72 %30.03 in10.0 miWest (260°)3.5 mphOvercast
7:53 PM51.1 °F46.0 °F83 %30.02 in10.0 miNNE (30°)3.5 mphOvercast
8:53 PM52.0 °F48.0 °F86 %30.04 in10.0 miWNW (290°)3.5 mphMostly Cloudy
9:53 PM51.8 °F46.4 °F82 %30.05 in10.0 miCalmMostly Cloudy
10:53 PM50.0 °F46.0 °F86 %30.06 in10.0 miCalmMostly Cloudy
11:53 PM51.1 °F48.0 °F89 %30.06 in10.0 miCalmOvercast
Hourly data recorded from KOAK, located miles away from Berkeley - University of California, California







STORIES FROM OUR PARTNERS